Flag for Aruba Weather past 2 weeks in Oranjestad, Aruba

Now
81 °F

Passing clouds.


Feels Like: 86 °F
Forecast: 82 / 90 °F
Wind: 13 mph from Southeast

Location: Hato Airport - Curacao

Current Time: Jul 31, 2014 at 3:49:55 AM

Latest Report: Jul 31, 2014 at 3:00 AM


Visibility: N/A

Pressure: 29.92 "Hg

Humidity: 84%

Dew point: 75 °F

Location of OranjestadLocation

Historic Weather in Oranjestad — Graph

°F

Oranjestad temperature yesterday

Maximum temperature yesterday: 86 °F (at 9:00 AM)
Minimum temperature yesterday: 81 °F (at 12:00 AM)
Average temperature yesterday: 84 °F

Past Weeks' High & Low Weather Summary

 TemperatureHumidityPressure
High91 °F (Jul 18, 12:00 PM)94% (Jul 20, 6:00 AM)30.04 "Hg (Jul 20, 6:00 AM)
Low79 °F (Jul 20, 5:00 AM)52% (Jul 18, 12:00 PM)29.86 "Hg (Jul 24, 4:00 PM)
Average84 °F78%29.96 "Hg
* Reported Jul 16 2:00 AM — Jul 31 2:00 AM, Oranjestad, Weather by CustomWeather, © 2014

Note: Actual official high and low records may vary slightly from our data, if they occured in-between our weather recording intervals... More about our weather records

Advertising

Oranjestad weather history for previous 24 hours

 ConditionsComfort  
Time TempWeatherWind HumidityBarometerVisibility
2:00 AM
Jul 31
81 °FPassing clouds.12 mph89%29.92 "HgN/A
1:00 AM81 °FPassing clouds.13 mph89%29.95 "HgN/A
12:00 AM81 °FPassing clouds.13 mph89%29.95 "HgN/A
10:00 PM
Jul 30
81 °FPassing clouds.13 mph84%29.95 "HgN/A
9:00 PM81 °FPassing clouds.15 mph89%29.92 "HgN/A
8:00 PM82 °FPassing clouds.16 mph84%29.92 "HgN/A
7:00 PM82 °FPassing clouds.14 mph84%29.89 "HgN/A
6:00 PM84 °FPassing clouds.17 mph79%29.89 "HgN/A
5:00 PM86 °FPassing clouds.17 mph75%29.89 "HgN/A
4:00 PM86 °FPassing clouds.16 mph75%29.89 "HgN/A
3:00 PM86 °FScattered clouds.17 mph75%29.92 "HgN/A
2:00 PM86 °FScattered clouds.16 mph75%29.95 "HgN/A
1:00 PM86 °FScattered clouds.17 mph75%29.95 "HgN/A
12:00 PM86 °FPartly sunny.16 mph75%29.98 "HgN/A
11:00 AM86 °FScattered clouds.16 mph75%30.01 "HgN/A
10:00 AM86 °FScattered clouds.15 mph70%30.01 "HgN/A
9:00 AM86 °FScattered clouds.17 mph70%29.98 "HgN/A
8:00 AM84 °FPassing clouds.15 mph74%29.98 "HgN/A
7:00 AM82 °FPassing clouds.14 mph79%29.98 "HgN/A
6:00 AM81 °FPassing clouds.12 mph84%29.95 "HgN/A
5:00 AM81 °FPassing clouds.10 mph84%29.95 "HgN/A
Weather by CustomWeather, © 2014

See weather overviewHow to use our weather pages